Location: Roc des P�zouls
(43.9667°N, 3.5500°E)
Time: 22:50:33
(UTC+00:00)

GENESIS II - Pass Details

Date: 14 November 2019
Orbit: 478 x 551 km, 64.5° (Epoch: 06 December)

Event Time Altitude Azimuth Distance (km) Brightness Sun altitude
Exits shadow 04:26:45 67° 152° (SSE) 592 4.4 -23.8°
Drops below altitude 10° 04:30:15 10° 147° (SSE) 1,788 7.4 -23.1°
Sets 04:32:25 0° 147° (SSE) 2,663 8.3 -22.7°
